TimeCDT,TemperatureF,Dew PointF,Humidity,Sea Level PressureIn,VisibilityMPH,Wind Direction,Wind SpeedMPH,Gust SpeedMPH,PrecipitationIn,Events,Conditions,WindDirDegrees,DateUTC
12:15 AM,59.9,46.0,60,29.73,10.0,South,19.6,29.9,N/A,,Clear,170,2013-04-15 05:15:00
12:35 AM,59.2,45.9,61,29.74,10.0,South,21.9,28.8,N/A,,Scattered Clouds,180,2013-04-15 05:35:00
12:55 AM,59.0,46.2,63,29.76,10.0,South,24.2,32.2,N/A,,Mostly Cloudy,180,2013-04-15 05:55:00
1:15 AM,59.0,46.0,62,29.78,10.0,South,27.6,33.4,N/A,,Scattered Clouds,180,2013-04-15 06:15:00
1:35 AM,58.3,46.4,65,29.79,10.0,South,25.3,33.4,N/A,,Scattered Clouds,180,2013-04-15 06:35:00
1:55 AM,58.1,46.4,65,29.79,10.0,South,24.2,31.1,N/A,,Mostly Cloudy,180,2013-04-15 06:55:00
2:15 AM,58.1,46.6,65,29.78,10.0,South,23.0,31.1,N/A,,Scattered Clouds,180,2013-04-15 07:15:00
2:35 AM,57.9,46.8,66,29.79,10.0,South,18.4,33.4,N/A,,Mostly Cloudy,170,2013-04-15 07:35:00
2:55 AM,57.4,47.1,69,29.79,10.0,South,19.6,29.9,N/A,,Overcast,180,2013-04-15 07:55:00
3:15 AM,56.8,47.3,70,29.79,10.0,South,16.1,26.5,N/A,,Mostly Cloudy,170,2013-04-15 08:15:00
3:35 AM,56.5,47.3,71,29.77,10.0,South,19.6,25.3,N/A,,Scattered Clouds,170,2013-04-15 08:35:00
3:55 AM,56.1,47.7,73,29.78,10.0,South,16.1,24.2,N/A,Rain,Light Rain,170,2013-04-15 08:55:00
4:15 AM,55.6,48.2,76,29.79,10.0,South,17.3,25.3,N/A,,Light Drizzle,170,2013-04-15 09:15:00
4:35 AM,55.6,47.8,75,29.80,10.0,South,15.0,18.4,N/A,,Overcast,170,2013-04-15 09:35:00
4:55 AM,55.2,47.8,76,29.80,10.0,South,15.0,-,N/A,,Overcast,180,2013-04-15 09:55:00
5:15 AM,55.0,48.2,78,29.80,10.0,South,16.1,24.2,N/A,,Overcast,170,2013-04-15 10:15:00
5:35 AM,54.9,48.2,78,29.80,10.0,South,15.0,20.7,N/A,,Overcast,170,2013-04-15 10:35:00
5:55 AM,54.9,48.2,78,29.81,10.0,South,13.8,-,N/A,,Overcast,180,2013-04-15 10:55:00
6:15 AM,54.9,48.4,79,29.82,10.0,South,18.4,24.2,N/A,,Overcast,180,2013-04-15 11:15:00
6:35 AM,54.7,48.6,80,29.82,10.0,South,15.0,19.6,N/A,,Overcast,180,2013-04-15 11:35:00
6:55 AM,54.7,48.7,80,29.84,10.0,South,17.3,-,N/A,,Overcast,180,2013-04-15 11:55:00
7:15 AM,54.9,49.1,81,29.84,10.0,South,15.0,21.9,N/A,,Overcast,170,2013-04-15 12:15:00
7:35 AM,55.0,49.1,80,29.84,10.0,South,13.8,-,N/A,,Overcast,170,2013-04-15 12:35:00
7:55 AM,55.4,49.5,80,29.84,10.0,South,13.8,18.4,N/A,,Overcast,170,2013-04-15 12:55:00
8:15 AM,56.3,50.0,79,29.84,10.0,South,16.1,25.3,N/A,,Overcast,180,2013-04-15 13:15:00
8:35 AM,56.3,50.2,80,29.85,10.0,South,18.4,25.3,N/A,,Overcast,180,2013-04-15 13:35:00
8:55 AM,56.8,50.4,79,29.83,10.0,South,18.4,25.3,N/A,,Overcast,170,2013-04-15 13:55:00
9:15 AM,57.4,51.1,79,29.82,10.0,South,19.6,25.3,N/A,,Scattered Clouds,170,2013-04-15 14:15:00
9:35 AM,57.7,51.3,79,29.84,10.0,South,16.1,26.5,N/A,,Clear,180,2013-04-15 14:35:00
9:55 AM,58.1,51.8,80,29.84,10.0,South,17.3,24.2,N/A,,Mostly Cloudy,190,2013-04-15 14:55:00
10:15 AM,58.5,52.3,80,29.85,10.0,SSW,12.7,21.9,N/A,,Scattered Clouds,200,2013-04-15 15:15:00
10:35 AM,58.5,52.7,81,29.85,10.0,South,17.3,24.2,N/A,,Mostly Cloudy,190,2013-04-15 15:35:00
10:55 AM,59.4,53.1,80,29.86,10.0,SSW,16.1,24.2,N/A,Thunderstorm,Thunderstorm,200,2013-04-15 15:55:00
11:15 AM,59.9,53.4,79,29.86,10.0,SSW,12.7,24.2,N/A,,Scattered Clouds,200,2013-04-15 16:15:00
11:35 AM,59.9,53.6,80,29.87,10.0,SSW,15.0,27.6,N/A,,Mostly Cloudy,200,2013-04-15 16:35:00
11:55 AM,59.9,53.8,80,29.86,10.0,South,15.0,24.2,N/A,,Overcast,190,2013-04-15 16:55:00
12:15 PM,60.1,53.8,80,29.84,10.0,South,23.0,26.5,N/A,,Overcast,180,2013-04-15 17:15:00
12:35 PM,60.8,54.3,79,29.84,10.0,South,16.1,21.9,N/A,,Mostly Cloudy,180,2013-04-15 17:35:00
12:55 PM,63.0,55.4,76,29.84,10.0,South,17.3,25.3,N/A,,Mostly Cloudy,190,2013-04-15 17:55:00
1:15 PM,64.0,55.6,74,29.84,10.0,South,17.3,24.2,N/A,,Scattered Clouds,190,2013-04-15 18:15:00
1:35 PM,62.2,55.2,78,29.84,10.0,SSW,18.4,21.9,N/A,,Scattered Clouds,200,2013-04-15 18:35:00
1:55 PM,61.9,55.6,80,29.85,10.0,SSW,17.3,-,N/A,,Mostly Cloudy,200,2013-04-15 18:55:00
2:15 PM,60.6,55.4,83,29.87,10.0,SW,17.3,21.9,N/A,,Overcast,220,2013-04-15 19:15:00
2:35 PM,60.8,55.6,83,29.87,10.0,SW,13.8,17.3,N/A,,Overcast,220,2013-04-15 19:35:00
2:55 PM,60.4,55.9,85,29.87,10.0,SW,13.8,-,N/A,,Overcast,220,2013-04-15 19:55:00
3:15 PM,60.6,56.1,85,29.87,10.0,SW,9.2,-,N/A,Rain,Rain,220,2013-04-15 20:15:00
3:35 PM,59.2,56.7,91,29.87,10.0,West,6.9,-,N/A,Rain,Light Rain,270,2013-04-15 20:35:00
3:55 PM,58.3,54.7,88,29.88,7.0,WSW,5.8,-,0.01,Rain,Rain,250,2013-04-15 20:55:00
4:15 PM,57.2,54.3,90,29.88,7.0,WSW,8.1,-,0.02,Rain,Light Rain,240,2013-04-15 21:15:00
4:35 PM,56.3,53.4,90,29.87,7.0,West,5.8,-,0.04,Rain,Light Rain,270,2013-04-15 21:35:00
4:55 PM,55.4,53.2,92,29.89,7.0,West,6.9,-,0.12,Rain,Light Rain,260,2013-04-15 21:55:00
5:15 PM,55.0,53.6,95,29.88,4.0,West,6.9,-,0.02,Rain,Rain,270,2013-04-15 22:15:00
5:35 PM,54.5,53.8,97,29.88,3.0,WNW,8.1,-,0.03,,Drizzle,290,2013-04-15 22:35:00
5:55 PM,52.9,51.4,95,29.89,4.0,WNW,6.9,-,0.07,Rain,Rain,290,2013-04-15 22:55:00
6:15 PM,52.0,51.3,97,29.89,3.0,NW,4.6,-,0.08,Rain,Light Rain,320,2013-04-15 23:15:00
6:35 PM,52.0,51.3,97,29.88,5.0,NNW,4.6,-,0.09,Rain,Rain,330,2013-04-15 23:35:00
6:55 PM,51.8,50.9,97,29.88,7.0,Calm,Calm,-,0.13,Rain,Rain,0,2013-04-15 23:55:00
7:15 PM,51.8,51.1,97,29.89,7.0,Calm,Calm,-,0.01,,Drizzle,0,2013-04-16 00:15:00
7:35 PM,51.4,50.9,98,29.89,5.0,Calm,Calm,-,0.03,Rain,Rain,0,2013-04-16 00:35:00
7:55 PM,51.4,50.4,96,29.90,7.0,NW,3.5,-,0.04,,Drizzle,310,2013-04-16 00:55:00
8:15 PM,51.3,50.4,97,29.92,5.0,NW,5.8,-,0.01,,Heavy Drizzle,310,2013-04-16 01:15:00
8:35 PM,48.2,46.8,95,29.92,5.0,NNW,10.4,16.1,0.02,Rain,Light Rain,340,2013-04-16 01:35:00
8:55 PM,47.7,46.4,95,29.93,7.0,NNW,9.2,-,0.03,,Drizzle,330,2013-04-16 01:55:00
9:15 PM,47.5,46.4,96,29.93,10.0,North,6.9,-,0.01,Rain,Rain,350,2013-04-16 02:15:00
9:35 PM,47.3,46.0,95,29.95,10.0,NW,9.2,-,0.02,Rain,Light Rain,320,2013-04-16 02:35:00
9:55 PM,46.9,46.0,97,29.96,5.0,NNW,8.1,-,0.07,Rain,Light Rain,330,2013-04-16 02:55:00
10:15 PM,46.9,46.4,98,29.96,7.0,NNW,6.9,-,0.01,Rain,Light Rain,330,2013-04-16 03:15:00
10:35 PM,46.9,46.4,98,29.96,5.0,NNW,5.8,-,0.07,Rain,Heavy Rain,340,2013-04-16 03:35:00
10:55 PM,46.8,45.9,97,29.97,10.0,North,4.6,-,0.09,Rain,Rain,350,2013-04-16 03:55:00
11:15 PM,46.9,45.9,96,29.96,10.0,North,4.6,-,N/A,Rain,Light Rain,350,2013-04-16 04:15:00
11:35 PM,46.9,45.7,95,29.99,7.0,WNW,3.5,-,0.07,Rain,Rain,300,2013-04-16 04:35:00
11:55 PM,46.4,44.6,93,29.97,10.0,NNW,5.8,-,0.10,Rain,Light Rain,340,2013-04-16 04:55:00